Wind_Speed
29 28 27 27 27 29 30 30 31 32 33 33 32 32 32 32 31 31 31 31 32 32 32 32 32 33 33 33 32 32 32 32 32 33 34 34 35 36 37 38 38 39 39
31 30 29 29 29 30 31 31 32 32 33 33 33 34 33 33 33 32 32 33 33 33 34 34 34 34 34 35 35 35 35 36 36 36 37 37 38 39 40 41 42 42 43
33 33 32 31 31 31 32 32 33 33 34 34 34 35 35 35 33 33 32 33 34 34 35 35 35 36 37 37 38 38 39 39 40 40 41 42 43 44 45 46 47 48 48
34 34 34 34 34 34 34 34 34 34 35 35 35 35 36 35 34 33 33 33 34 35 36 37 38 39 40 41 41 42 42 43 44 45 46 47 48 49 51 52 53 54 54
35 35 35 35 35 36 36 37 37 36 36 36 36 37 37 36 36 36 36 36 37 37 39 40 42 43 44 45 45 45 46 46 47 49 50 51 52 54 55 56 57 58 59
35 35 34 35 36 37 38 39 39 38 38 38 38 38 39 38 38 39 39 39 40 42 43 44 45 47 48 48 49 49 49 50 51 52 54 55 56 58 59 60 61 62 62
35 35 35 35 37 38 39 39 40 40 40 40 40 40 41 41 41 42 42 43 44 45 46 48 49 50 50 51 51 52 52 53 55 56 57 59 60 61 62 63 64 64 65
36 36 36 36 37 38 39 39 39 41 41 42 43 43 44 43 43 45 46 47 47 48 49 50 51 52 53 53 54 55 56 57 58 60 61 62 63 63 64 65 65 66 67
39 38 37 37 38 39 39 39 39 40 42 43 45 45 46 46 46 46 48 49 49 51 52 53 53 54 55 56 57 58 60 61 62 64 64 65 66 66 67 68 69 70 71
40 39 38 38 39 39 39 40 41 42 43 44 46 47 48 49 49 49 49 50 50 51 53 54 55 56 58 60 62 63 65 66 66 67 68 69 69 70 71 72 73 74 74
41 40 40 40 40 39 39 40 42 43 45 46 47 48 49 50 51 51 50 50 51 53 54 54 55 57 59 62 64 66 68 69 70 70 71 72 73 74 75 76 77 77 78
42 41 41 40 40 39 40 41 43 44 46 47 48 49 50 51 53 53 53 52 51 52 54 56 58 60 62 64 65 67 68 69 70 72 73 74 75 77 78 80 81 83 84
42 42 41 40 40 40 40 42 44 45 47 48 49 50 51 52 53 54 55 54 53 53 55 57 60 63 65 66 67 68 69 70 72 73 75 77 79 81 83 86 88 90 92
42 42 41 40 40 40 41 43 44 46 47 49 50 51 52 53 54 55 56 57 56 56 58 60 63 65 67 68 69 70 70 72 73 76 78 81 85 88 91 94 97 99 101
43 42 41 40 40 41 42 43 45 47 48 49 50 51 52 53 54 55 57 59 61 63 62 62 64 66 67 68 69 71 73 75 78 82 86 90 94 97 100 102 103 103 102
43 42 41 40 40 41 43 44 46 47 49 50 51 52 53 54 55 57 59 62 65 67 67 66 68 68 69 70 72 75 78 82 87 91 96 100 102 104 103 101 96 89 82
42 41 40 40 40 42 43 45 46 48 49 51 52 54 55 56 58 60 63 65 66 68 69 68 69 70 72 74 78 82 86 91 96 100 103 104 102 98 91 82 73 64 57
41 40 40 40 41 43 44 46 47 49 50 52 54 55 57 59 61 63 65 66 67 68 69 69 69 72 76 80 85 89 94 98 101 101 99 94 86 77 67 59 52 48 46
40 39 39 40 42 44 45 46 48 50 51 53 55 58 60 62 64 65 66 67 68 69 70 72 73 77 83 88 92 96 99 99 96 89 82 73 64 57 51 47 45 43 42
38 38 40 41 43 45 46 48 49 51 53 55 58 60 62 64 65 66 67 67 68 70 73 77 80 84 90 95 98 98 94 87 78 68 62 56 51 47 46 45 44 43 41
37 38 41 42 45 47 48 48 50 52 55 58 60 62 64 65 66 66 67 68 71 74 78 82 87 92 96 98 96 91 81 69 58 55 51 48 47 45 46 45 44 43 42
37 39 41 44 46 47 47 49 51 54 57 60 61 63 64 65 65 66 68 71 76 80 85 89 93 97 97 93 85 74 63 54 48 49 49 45 45 44 44 44 44 43 42
39 41 43 44 45 46 48 51 54 56 59 60 61 63 63 64 66 68 71 76 81 87 92 96 96 94 87 78 69 59 52 49 47 47 47 43 43 41 42 42 43 43 41
39 41 42 43 45 47 50 53 55 57 58 60 61 62 63 65 69 72 76 80 85 91 95 95 90 81 71 62 55 51 48 46 44 45 47 43 40 39 39 40 42 42 40
38 40 42 44 46 49 52 54 55 56 58 59 60 63 66 69 73 77 81 86 90 92 91 85 75 65 57 52 50 49 48 46 43 42 45 44 40 38 35 37 39 40 39
38 41 43 45 48 50 52 53 55 56 57 59 62 66 70 74 78 83 87 89 90 86 79 68 59 53 49 48 48 48 47 46 44 42 43 42 38 37 32 31 35 37 37
Wind_Direction
281 282 280 279 277 276 275 275 274 273 273 275 276 278 280 282 283 284 282 279 279 282 285 289 293 295 297 297 296 294 291 289 287 285 283 281 279 278 276 275 273 272 271
281 282 282 281 279 278 277 277 276 275 275 275 277 279 281 283 284 285 284 282 281 283 286 289 293 296 298 298 296 293 291 289 287 285 284 283 282 281 279 278 276 274 272
279 281 282 281 280 279 278 278 278 277 277 277 278 280 283 285 286 285 285 284 284 285 288 291 294 296 298 298 297 294 290 288 286 285 284 283 282 281 281 279 278 276 275
279 280 281 281 280 279 279 278 279 278 278 278 279 281 284 287 288 287 287 287 287 289 291 292 294 296 297 297 296 293 290 287 285 284 283 282 281 280 279 278 277 276 275
279 281 282 282 281 280 278 278 279 279 279 280 280 282 284 286 288 288 289 289 290 290 291 293 294 295 296 296 295 293 290 287 285 283 282 282 281 280 279 278 277 276 275
279 282 284 283 282 281 279 278 279 279 279 280 280 281 283 285 286 288 289 290 291 291 292 292 293 294 294 294 293 292 289 287 285 284 283 282 281 281 280 279 278 277 276
279 283 284 284 284 282 280 279 279 280 280 281 281 281 283 285 286 287 288 289 289 290 291 292 292 292 293 293 292 291 289 288 287 285 284 283 282 281 280 280 279 278 276
278 281 284 285 285 284 282 280 279 280 281 282 282 282 283 284 286 288 289 289 289 289 290 291 292 292 292 292 291 290 290 289 288 287 286 285 284 283 282 281 279 278 277
276 281 284 285 284 284 283 283 282 282 282 283 283 284 284 285 286 287 288 289 290 292 293 293 293 293 293 293 293 293 292 292 291 290 289 288 287 286 285 283 282 280 279
275 279 282 283 283 283 284 284 284 284 284 284 285 286 287 288 288 289 290 291 292 293 293 294 294 295 295 296 296 296 295 295 294 293 292 291 290 288 287 286 284 282 280
273 276 279 281 282 284 285 286 286 285 285 286 287 288 288 289 289 290 291 292 293 294 294 294 294 294 295 296 296 296 296 295 295 294 293 292 290 289 287 285 284 282 280
271 274 277 279 282 284 285 286 287 288 288 289 290 290 290 291 291 291 292 292 292 293 294 295 295 296 296 296 295 295 294 294 293 292 291 290 288 287 285 284 283 281 280
269 272 275 278 282 285 286 288 289 290 291 291 292 292 293 293 293 294 294 294 294 295 296 297 297 297 297 296 295 295 294 294 293 292 291 289 288 287 286 284 283 282 280
267 270 274 278 282 286 288 289 291 291 292 292 293 293 294 294 295 295 296 296 296 297 298 299 298 298 298 298 297 297 296 295 294 293 291 290 289 288 287 286 284 283 281
265 269 273 278 283 286 288 290 291 291 292 293 294 294 294 295 296 296 297 299 299 300 300 300 299 299 299 298 298 297 297 296 295 295 294 293 292 291 290 288 286 284 283
264 268 274 279 283 287 289 290 291 292 293 294 294 295 295 296 297 299 300 301 301 301 302 302 301 301 301 300 300 299 299 299 299 298 297 296 295 294 292 290 289 287 284
263 269 275 280 284 287 289 290 291 292 293 294 294 295 296 298 299 301 302 302 302 303 303 303 303 303 303 302 302 302 302 302 301 300 299 298 296 295 293 291 289 286 282
265 270 276 281 284 287 289 291 292 293 293 293 295 296 298 300 301 302 302 303 303 304 304 304 304 304 304 303 303 303 303 303 302 301 299 298 296 295 293 290 287 282 279
267 272 278 282 285 288 289 290 292 292 292 294 296 298 299 301 302 303 304 304 305 305 305 305 305 306 306 305 305 305 305 304 302 300 299 297 295 294 292 288 285 282 280
270 275 280 284 287 288 289 290 291 292 293 295 297 299 301 302 303 304 305 305 305 306 306 306 307 307 307 307 307 306 305 304 302 300 298 297 295 293 291 288 286 284 283
272 277 282 285 286 287 289 290 291 292 294 297 299 300 302 303 304 305 305 306 306 307 307 307 308 308 308 308 307 307 306 304 302 298 298 296 294 292 289 287 286 285 283
275 279 281 284 287 289 290 291 292 294 296 298 300 301 303 304 305 306 307 308 308 308 308 309 309 309 309 309 308 308 307 305 301 298 297 295 293 291 288 286 284 283 282
274 276 280 285 287 289 290 291 293 295 298 300 301 302 304 304 305 307 308 309 309 310 310 310 310 310 310 309 309 308 307 306 304 301 298 296 292 290 288 286 284 283 282
276 280 284 286 288 290 291 293 295 298 300 301 303 304 305 306 307 308 309 309 310 310 311 311 311 310 310 309 308 308 307 306 305 304 301 300 296 292 289 287 284 283 282
281 284 287 289 290 292 294 296 298 300 302 303 304 305 306 307 308 308 310 311 311 312 312 312 311 311 310 310 310 310 310 308 307 306 303 302 299 294 292 288 285 283 282
286 288 290 291 293 295 297 299 300 302 303 305 305 306 307 308 309 310 310 311 312 312 312 311 311 311 312 313 313 313 312 311 310 307 304 303 300 295 291 286 283 282 282
Height
5806 5807 5807 5807 5806 5806 5806 5806 5806 5806 5806 5805 5804 5804 5803 5802 5801 5800 5799 5798 5797 5796 5794 5793 5792 5790 5788 5787 5785 5783 5781 5780 5779 5778 5777 5777 5777 5776 5776 5776 5776 5776 5776
5800 5800 5801 5801 5800 5800 5799 5799 5799 5799 5799 5798 5798 5797 5796 5795 5794 5793 5792 5790 5789 5788 5787 5785 5784 5782 5781 5779 5777 5775 5774 5772 5771 5770 5769 5768 5768 5767 5767 5767 5766 5767 5767
5794 5794 5794 5794 5794 5793 5793 5793 5793 5792 5792 5791 5791 5790 5788 5787 5786 5785 5784 5783 5781 5780 5779 5777 5776 5774 5772 5770 5769 5767 5765 5763 5762 5760 5759 5758 5758 5757 5756 5756 5756 5755 5755
5787 5788 5788 5788 5787 5787 5786 5786 5786 5785 5785 5784 5784 5782 5781 5779 5778 5777 5776 5775 5773 5772 5770 5768 5766 5765 5763 5761 5759 5757 5755 5753 5752 5750 5749 5747 5746 5746 5745 5744 5743 5743 5742
5781 5781 5781 5781 5780 5780 5779 5779 5778 5778 5777 5777 5776 5775 5774 5772 5770 5768 5767 5766 5764 5763 5761 5759 5757 5754 5752 5750 5748 5745 5743 5742 5740 5738 5737 5735 5734 5733 5731 5730 5729 5729 5728
5775 5775 5774 5774 5773 5773 5772 5771 5771 5770 5770 5769 5768 5767 5766 5764 5762 5760 5758 5757 5755 5753 5751 5749 5747 5744 5741 5738 5735 5733 5731 5729 5727 5725 5723 5722 5720 5718 5716 5715 5713 5712 5711
5768 5768 5768 5767 5766 5765 5765 5764 5763 5762 5761 5760 5760 5759 5757 5755 5753 5751 5749 5747 5745 5743 5740 5737 5734 5732 5729 5726 5723 5720 5717 5715 5713 5710 5708 5706 5704 5702 5700 5698 5696 5695 5693
5760 5760 5760 5760 5759 5758 5757 5756 5755 5754 5753 5751 5750 5749 5748 5747 5744 5741 5738 5736 5733 5731 5728 5725 5722 5718 5715 5712 5709 5706 5703 5700 5697 5694 5691 5689 5686 5683 5681 5679 5677 5676 5674
5753 5753 5753 5752 5751 5750 5749 5748 5747 5746 5744 5742 5741 5739 5737 5735 5734 5732 5728 5725 5721 5718 5715 5711 5708 5704 5700 5697 5694 5690 5687 5684 5680 5676 5672 5669 5666 5663 5661 5659 5657 5655 5653
5745 5745 5745 5744 5743 5742 5741 5740 5738 5737 5736 5734 5731 5728 5726 5723 5721 5720 5717 5713 5710 5706 5702 5698 5694 5689 5684 5680 5676 5672 5668 5664 5660 5656 5652 5648 5645 5641 5638 5636 5634 5632 5630
5737 5737 5737 5736 5735 5734 5733 5731 5729 5727 5726 5724 5721 5718 5715 5712 5709 5707 5706 5702 5698 5693 5689 5685 5681 5676 5671 5666 5661 5655 5650 5645 5640 5636 5631 5627 5623 5619 5616 5612 5609 5606 5604
5729 5729 5729 5728 5727 5725 5724 5722 5720 5718 5715 5713 5710 5707 5704 5700 5697 5694 5692 5690 5687 5682 5677 5671 5666 5662 5657 5652 5646 5640 5634 5629 5624 5618 5613 5607 5602 5598 5593 5589 5585 5581 5578
5720 5720 5720 5719 5718 5717 5715 5713 5711 5708 5705 5702 5699 5696 5692 5688 5684 5680 5677 5674 5672 5669 5664 5658 5651 5646 5640 5635 5629 5623 5617 5611 5604 5598 5592 5586 5580 5574 5569 5563 5558 5553 5548
5712 5712 5711 5711 5709 5708 5706 5704 5701 5698 5695 5692 5688 5684 5680 5676 5672 5667 5662 5658 5656 5654 5649 5643 5636 5629 5622 5616 5610 5603 5597 5590 5583 5577 5570 5562 5555 5548 5541 5534 5527 5521 5514
5703 5703 5702 5702 5700 5699 5697 5695 5692 5689 5685 5682 5678 5673 5669 5664 5660 5654 5649 5644 5639 5636 5634 5628 5619 5612 5605 5598 5590 5583 5576 5569 5561 5553 5544 5535 5526 5517 5508 5499 5491 5482 5474
5694 5694 5694 5693 5692 5690 5688 5685 5682 5678 5675 5671 5666 5662 5657 5652 5647 5641 5636 5630 5623 5617 5613 5608 5600 5592 5584 5577 5569 5561 5553 5544 5534 5524 5512 5501 5491 5481 5470 5460 5451 5443 5437
5685 5685 5685 5684 5683 5681 5678 5675 5672 5668 5664 5659 5655 5650 5645 5640 5634 5628 5622 5615 5607 5600 5594 5590 5580 5571 5563 5555 5547 5537 5527 5517 5505 5492 5479 5467 5455 5445 5435 5427 5421 5416 5412
5676 5677 5676 5675 5673 5671 5668 5665 5662 5657 5653 5648 5643 5638 5632 5626 5620 5613 5606 5599 5591 5583 5575 5570 5563 5553 5544 5534 5524 5514 5502 5489 5475 5461 5447 5435 5424 5416 5409 5404 5400 5398 5396
5668 5668 5667 5666 5664 5661 5658 5655 5651 5646 5641 5636 5630 5625 5618 5612 5605 5597 5590 5582 5573 5565 5556 5549 5543 5533 5522 5509 5499 5489 5475 5460 5445 5430 5420 5410 5402 5396 5391 5388 5385 5383 5381
5660 5659 5658 5656 5654 5651 5647 5643 5639 5634 5629 5623 5617 5610 5604 5596 5589 5581 5573 5565 5556 5547 5538 5529 5520 5511 5498 5484 5472 5461 5450 5434 5420 5406 5399 5392 5387 5382 5377 5374 5371 5369 5367
5651 5650 5649 5647 5644 5641 5637 5632 5628 5622 5616 5610 5603 5596 5589 5581 5573 5565 5557 5548 5539 5529 5519 5509 5499 5487 5474 5460 5446 5433 5422 5412 5401 5388 5385 5379 5373 5369 5364 5360 5357 5354 5353
5643 5642 5640 5637 5634 5630 5625 5621 5616 5610 5603 5597 5590 5582 5574 5566 5558 5549 5540 5530 5519 5508 5497 5487 5476 5462 5449 5433 5421 5409 5399 5394 5388 5377 5370 5367 5360 5356 5351 5347 5343 5341 5339
5635 5633 5630 5627 5623 5619 5614 5609 5603 5597 5590 5583 5575 5567 5559 5551 5542 5533 5524 5513 5500 5485 5473 5462 5450 5436 5423 5411 5401 5393 5383 5377 5371 5362 5356 5354 5348 5343 5338 5332 5329 5327 5325
5625 5623 5620 5616 5612 5607 5602 5597 5591 5584 5577 5569 5560 5552 5543 5535 5525 5516 5507 5496 5482 5467 5453 5439 5426 5413 5401 5391 5383 5377 5371 5365 5359 5348 5340 5338 5335 5330 5325 5319 5314 5313 5311
5616 5613 5609 5605 5601 5596 5590 5584 5578 5570 5563 5554 5545 5536 5527 5519 5509 5499 5489 5477 5464 5448 5431 5415 5403 5393 5384 5376 5369 5363 5357 5350 5346 5339 5328 5324 5320 5317 5314 5307 5302 5299 5297
5607 5603 5599 5594 5589 5584 5578 5571 5564 5557 5550 5541 5532 5522 5511 5501 5490 5478 5468 5456 5443 5429 5414 5400 5388 5379 5371 5364 5356 5349 5343 5337 5331 5326 5318 5312 5307 5302 5303 5298 5291 5287 5285